Flag for Germany Weather past 2 weeks in Siegburg, North Rhine-Westphalia, Germany

Now
62 °F

Fog.


Feels Like: 62 °F
Forecast: 59 / 76 °F
Wind: 3 mph from North

Location: Bonn-Hangelar

Current Time: Jul 30, 2014 at 5:58:13 AM

Latest Report: Jul 30, 2014 at 5:00 AM


Visibility: 3 mi

Pressure: 29.86 "Hg

Humidity: 96%

Dew point: 61 °F

Location of SiegburgLocation

Historic Weather in Siegburg — Graph

°F

Siegburg temperature yesterday

Maximum temperature yesterday: 73 °F (at 3:00 PM)
Minimum temperature yesterday: 63 °F (at 8:00 AM)
Average temperature yesterday: 65 °F

Past Weeks' High & Low Weather Summary

 TemperatureHumidityPressure
High93 °F (Jul 19, 5:00 PM)100% (Jul 22, 10:00 AM)30.20 "Hg (Jul 22, 10:00 AM)
Low55 °F (Jul 15, 6:00 AM)23% (Jul 19, 3:00 PM)29.78 "Hg (Jul 20, 4:00 AM)
Average69 °F75%29.97 "Hg
* Reported Jul 15 4:00 AM — Jul 30 4:00 AM, Siegburg, Weather by CustomWeather, © 2014

Note: Actual official high and low records may vary slightly from our data, if they occured in-between our weather recording intervals... More about our weather records

Advertising

Siegburg weather history for previous 24 hours

 ConditionsComfort  
Time TempWeatherWind HumidityBarometerVisibility
4:00 AM
Jul 30
63 °FFog.5 mph97%29.85 "Hg2 mi
3:00 AM64 °FFog.5 mph97%29.85 "Hg2 mi
2:00 AM65 °FFog.6 mph97%29.85 "Hg2 mi
1:00 AM66 °FLow clouds.5 mph97%29.85 "Hg1 mi
12:00 AM65 °FLight rain. Low clouds.5 mph98%29.85 "Hg1 mi
11:00 PM
Jul 29
66 °FLow clouds.6 mph96%29.84 "Hg2 mi
10:00 PM65 °FOvercast.3 mph98%29.83 "Hg1 mi
9:00 PM65 °FFog.5 mph98%29.84 "Hg1 mi
8:00 PM65 °FLight rain. Low clouds.5 mph96%29.83 "Hg9 mi
7:00 PM65 °FFog.3 mph96%29.81 "Hg11 mi
6:00 PM65 °FLight rain. Overcast.2 mph95%29.81 "Hg16 mi
5:00 PM65 °FThundershowers. Overcast.2 mph90%29.81 "Hg11 mi
4:00 PM72 °FThundershowers. Overcast.1 mph82%29.81 "Hg4 mi
3:00 PM73 °FThunderstorms. Overcast.2 mph80%29.81 "Hg2 mi
2:00 PM70 °FFog.1 mph89%29.84 "Hg1 mi
1:00 PM66 °FFog.3 mph98%29.85 "Hg1 mi
12:00 PM64 °FRain. Dense fog.2 mph98%29.86 "Hg1 mi
11:00 AM64 °FLow clouds.3 mph98%29.85 "Hg2 mi
10:00 AM63 °FRain. Low clouds.2 mph98%29.86 "Hg1 mi
9:00 AM63 °FLight rain. Low clouds.3 mph97%29.85 "Hg1 mi
8:00 AM63 °FLow clouds.3 mph98%29.84 "Hg1 mi
7:00 AM63 °FFog.1 mph96%29.85 "Hg2 mi
6:00 AM63 °FFog.2 mph95%29.85 "Hg2 mi
5:00 AM63 °FFog.2 mph94%29.85 "Hg2 mi
Weather by CustomWeather, © 2014

See weather overviewHow to use our weather pages